Location: ?????oe
(44.4874°N, 135.7046°E)
Time: 15:01:01
(UTC+00:00)

Meteor 1-10 Rocket - Pass Details

Date: 13 December 2025
Orbit: 835 x 908 km, 81.3° (Epoch: 19 January)

Event Time Altitude Azimuth Distance (km) Brightness Sun altitude
Rises 21:08:17 0° 349° (N) 3,535 7.1 -13.2°
Reaches altitude 10° 21:10:45 10° 350° (N) 2,595 6.4 -12.8°
Maximum altitude 21:16:42 90° 54° (NE) 915 4.4 -11.8°
Drops below altitude 10° 21:22:37 10° 171° (S) 2,582 7.2 -10.8°
Sets 21:25:04 0° 172° (S) 3,515 7.9 -10.4°
